Regional Weather Roundup
Issued by NWS Sioux Falls, SD

Home | Current Version | Previous Version | Graphics & Text | Print | Product List | Glossary On
Versions: 1 2 3 4 5 6 7 8 9 10 11 12 13 14 15 16 17 18 19 20 21 22 23 24 25 26 27 28 29 30 31 32 33 34 35 36 37 38 39 40 41 42 43 44 45 46 47 48 49 50
000
ASUS43 KFSD 010602
RWRFSD

WEATHER ROUNDUP FOR SE SOUTH DAKOTA/SW MINNESOTA/NW IOWA
NATIONAL WEATHER SERVICE SIOUX FALLS SD
100 AM CDT MON SEP 01 2014

NOTE: "FAIR" INDICATES FEW OR NO CLOUDS BELOW 12,000 FEET WITH NO
SIGNIFICANT WEATHER AND OR OBSTRUCTIONS TO VISIBILITY.


SDZ038>040-050-052>070-010700-
SOUTHEAST SOUTH DAKOTA

CITY           SKY/WX    TMP DP  RH WIND       PRES   REMARKS
CHAMBERLAIN    LGT RAIN  62  60  94 NW5       29.76R
6HR MIN TEMP:  60; 6HR MAX TEMP:  68; 6HR PCP:  0.01;

HURON          LGT RAIN  62  60  93 SW3       29.70S
6HR MIN TEMP:  59; 6HR MAX TEMP:  68; 6HR PCP: TRACE;

MADISON        CLOUDY    59  59 100 NW3       29.71F
MITCHELL       CLOUDY    66  62  87 W10       29.73S
6HR MIN TEMP:  62; 6HR MAX TEMP:  73;

SIOUX FALLS    CLOUDY    62  59  90 NW6       29.70S
6HR MIN TEMP:  61; 6HR MAX TEMP:  70; 6HR PCP: TRACE;

WINNER         CLOUDY    62  58  86 W9        29.79S
YANKTON        CLOUDY    63  61  94 NW8       29.71R
$$

MNZ071-072-080-081-089-090-097-098-010700-
SOUTHWEST MINNESOTA

CITY           SKY/WX    TMP DP  RH WIND       PRES   REMARKS
FAIRMONT       FAIR      63  57  82 SE6       29.69R
JACKSON        MOCLDY    64  63  94 E5        29.69R
LUVERNE        FAIR      63  61  94 NW5       29.69S
MARSHALL       CLOUDY    64  61  88 W3        29.67R
6HR MIN TEMP:  64; 6HR MAX TEMP:  73;

MONTEVIDEO     FAIR      64  63  94 NW3       29.67F
PIPESTONE      MOCLDY    63  59  88 CALM      29.71R
REDWOOD FALLS  CLOUDY    66  65  96 S6        29.66S
TRACY          MOCLDY    65  64  95 CALM      29.68S
WINDOM         FAIR      66  64  94 W3        29.67F
WORTHINGTON    FAIR      64  63  94 NW6       29.68F
$$

IAZ001>003-012>014-020>022-031-032-NEZ013-014-SDZ071-010700-
NORTHWEST IOWA

CITY           SKY/WX    TMP DP  RH WIND       PRES   REMARKS
CHEROKEE       FAIR      61  61 100 CALM      29.69R
DENISON        CLOUDY    64  64 100 CALM      29.67S
ESTHERVILLE    FAIR      62  61  96 SE7       29.67F
LE MARS          N/A     64  64 100 CALM      29.68S
ORANGE CITY    MOCLDY    66  64  94 W7        29.68S FOG
SHELDON        CLOUDY    64  64 100 CALM      29.68R
SIOUX CITY     FAIR      64  62  93 NW5       29.67R
6HR MIN TEMP:  64; 6HR MAX TEMP:  70; 6HR PCP: TRACE;

SPENCER        FAIR      62  60  93 SE3       29.68R
6HR MIN TEMP:  62; 6HR MAX TEMP:  70; 6HR PCP:  0.19;

STORM LAKE     FAIR      63  63 100 CALM      29.70R FOG
$$

ABBREVIATIONS USED IN REMARKS
   TC - TEMPERATURE IN CELSIUS
  WCI - WIND CHILL INDEX
   HX - HEAT INDEX
  VSB - VISIBILITY



USA.gov is the U.S. government's official web portal to all federal, state and local government web resources and services.